Weather History for Lake Charles, LA

Change the Weather History Date:

Monday, April 7, 2014

  Actual Average Record
Temperature  
Mean Temperature 62 °F -  
Max Temperature 71 °F 76 °F 89 °F (2008)
Min Temperature 53 °F 61 °F 41 °F (2007)
Degree Days  
Heating Degree Days 3    
Growing Degree Days 12 (Base 50)    
Moisture  
Dew Point 52 °F    
Average Humidity 81    
Maximum Humidity 93    
Minimum Humidity 50    
Precipitation  
Precipitation 0.01 in - - ()
Sea Level Pressure  
Sea Level Pressure 29.82 in    
Wind  
Wind Speed 8 mph (NW)    
Max Wind Speed 14 mph    
Max Gust Speed -    
Visibility 10 miles    
Events      
Averages and records for this station are not official NWS values.
T = Trace of Precipitation, MM = Missing Value Source: NWS Daily Summary

Daily Weather History Graph

Daily Weather History Graph

Search for Another Location

Airport:

Trip Planner

Search our weather history database for the weather conditions in past years. The results will help you decide how hot, cold, wet, or windy it might be!

Date:

Astronomy

Apr. 07, 2014 Rise Set
Actual Time 6:54 AM CDT 7:35 PM CDT
Civil Twilight 6:30 AM CDT 7:59 PM CDT
Nautical Twilight 6:01 AM CDT 8:28 PM CDT
Astronomical Twilight 5:32 AM CDT 8:57 PM CDT
Moon 1:01 PM CDT (4/7) 2:01 AM CDT (4/7)
Length of Visible Light 13h 29m
Length of Day
12h 40m
First Quarter, 53% of the Moon is Illuminated
Apr 7
First Quarter
Apr 15
Full
Apr 22
Last Quarter
Apr 29
New
May 6
First Quarter

Hourly Weather History & Observations

Time (CDT) Temp. Dew Point Humidity Pressure Visibility Wind Dir Wind Speed Gust Speed Precip Events Conditions
12:15 AM 58.1 °F 55.9 °F 93% 29.69 in 10.0 mi NW 6.9 mph - N/A   Overcast
12:35 AM 57.7 °F 55.4 °F 92% 29.69 in 10.0 mi NW 9.2 mph - N/A   Overcast
12:55 AM 57.2 °F 54.7 °F 91% 29.71 in 10.0 mi NW 9.2 mph - N/A   Overcast
1:15 AM 56.8 °F 54.9 °F 93% 29.71 in 10.0 mi WNW 6.9 mph - N/A   Overcast
1:35 AM 56.8 °F 54.7 °F 92% 29.71 in 10.0 mi NW 11.5 mph - N/A   Overcast
1:55 AM 56.5 °F 54.1 °F 92% 29.71 in 10.0 mi NW 12.7 mph - N/A   Overcast
2:15 AM 56.3 °F 53.8 °F 91% 29.71 in 10.0 mi WNW 13.8 mph - N/A   Overcast
2:35 AM 55.9 °F 53.6 °F 92% 29.71 in 10.0 mi NW 8.1 mph - N/A   Overcast
2:55 AM 55.8 °F 53.6 °F 92% 29.72 in 7.0 mi WNW 9.2 mph - N/A   Overcast
3:15 AM 55.4 °F 53.1 °F 92% 29.74 in 7.0 mi WNW 11.5 mph - N/A   Overcast
3:35 AM 55.0 °F 52.7 °F 92% 29.75 in 5.0 mi WNW 6.9 mph - 0.01 in   Overcast
3:55 AM 55.0 °F 52.2 °F 90% 29.75 in 10.0 mi NW 8.1 mph - 0.01 in   Overcast
4:15 AM 55.0 °F 52.0 °F 89% 29.74 in 10.0 mi NW 10.4 mph - N/A   Overcast
6:00 AM 55.4 °F 51.8 °F 88% 29.78 in 10.0 mi NW 8.1 mph - N/A   Overcast
6:50 AM 55.4 °F 51.8 °F 88% 29.78 in 10.0 mi NW 8.1 mph - N/A   Overcast
7:45 AM 55.4 °F 51.8 °F 88% 29.78 in 10.0 mi NNW 11.5 mph - N/A   Overcast
8:50 AM 53.6 °F 48.2 °F 82% 29.78 in 10.0 mi NNW 8.1 mph - N/A   Overcast
9:50 AM 55.4 °F 48.2 °F 77% 29.88 in 10.0 mi NNW 10.4 mph - N/A   Overcast
11:50 AM 60.8 °F 51.8 °F 72% 29.86 in 10.0 mi North 8.1 mph - N/A   Scattered Clouds
12:50 PM 64.4 °F 51.8 °F 64% 29.85 in 10.0 mi NW 8.1 mph - N/A   Scattered Clouds
1:50 PM 69.8 °F 53.6 °F 56% 29.84 in 10.0 mi WNW 9.2 mph - N/A   Scattered Clouds
4:50 PM 71.6 °F 51.8 °F 50% 29.81 in 10.0 mi NNW 8.1 mph - N/A   Clear
7:55 PM 64.4 °F 51.8 °F 64% 29.89 in 10.0 mi NNW 5.8 mph - N/A   Clear
9:15 PM 61.3 °F 50.4 °F 67% 29.93 in 10.0 mi NNW 4.6 mph - N/A   Clear
9:35 PM 59.9 °F 50.0 °F 70% 29.94 in 10.0 mi North 3.5 mph - N/A   Clear
9:50 PM 60.8 °F 50.0 °F 68% 29.93 in 10.0 mi North 3.5 mph - N/A   Clear
9:55 PM 59.9 °F 50.4 °F 71% 29.94 in 10.0 mi NNW 3.5 mph - N/A   Clear
10:15 PM 59.9 °F 51.8 °F 75% 29.96 in 10.0 mi North 3.5 mph - N/A   Mostly Cloudy
10:35 PM 59.9 °F 51.8 °F 75% 29.96 in 10.0 mi Calm Calm - N/A   Mostly Cloudy
10:55 PM 59.0 °F 51.6 °F 76% 29.96 in 10.0 mi Calm Calm - N/A   Scattered Clouds
11:15 PM 58.8 °F 52.3 °F 79% 29.97 in 10.0 mi NNW 4.6 mph - N/A   Mostly Cloudy
11:35 PM 59.4 °F 52.2 °F 77% 29.99 in 10.0 mi North 6.9 mph - N/A   Overcast
11:55 PM 58.5 °F 52.0 °F 79% 29.98 in 10.0 mi North 4.6 mph - N/A   Mostly Cloudy